Weather History for K2C8 - December, 2012

Change the Weather History Date:

Saturday, December 1, 2012

  Actual Average (KGFK) Record (KGFK)
Temperature  
Mean Temperature 26 °F 17 °F  
Max Temperature 33 °F 26 °F 54 °F (1969)
Min Temperature 19 °F 8 °F -17 °F (1978)
Degree Days  
Heating Degree Days 39 48  
Month to date heating degree days 48  
Since 1 July heating degree days 2247  
Cooling Degree Days 0 0  
Month to date cooling degree days 0  
Year to date cooling degree days 379  
Moisture  
Dew Point 27 °F    
Average Humidity 97    
Maximum Humidity 100    
Minimum Humidity 87    
Precipitation  
Precipitation 0.00 in 0.02 in 0.23 in (2007)
Month to date precipitation 0.02  
Year to date precipitation 20.22  
Snow  
Snow 0.00 in 0.30 in 6.50 in (2007)
Month to date snowfall 0.3  
Since 1 July snowfall 9.5  
Snow Depth -    
Sea Level Pressure  
Sea Level Pressure 29.77 in    
Wind  
Wind Speed 11 mph (NW)    
Max Wind Speed 17 mph    
Max Gust Speed 25 mph    
Visibility 4 miles    
Events Fog    
T = Trace of Precipitation, MM = Missing Value Source: NWS Daily Summary

Daily Weather History Graph

Daily Weather History Graph

Search for Another Location

Airport or City:

Trip Planner

Search our weather history database for the weather conditions in past years. The results will help you decide how hot, cold, wet, or windy it might be!

Date:

Astronomy

Dec. 01, 2012 Rise Set
Actual Time 8:03 AM CST 4:36 PM CST
Civil Twilight 7:26 AM CST 5:12 PM CST
Nautical Twilight 6:47 AM CST 5:52 PM CST
Astronomical Twilight 6:09 AM CST 6:30 PM CST
Moon 7:32 PM CST (12/1) 10:13 AM CST (12/1)
Length of Visible Light 9h 45m
Length of Day
8h 33m
Waning Gibbous, 91% of the Moon is Illuminated
Dec 1
Waning Gibbous
Dec 6
Last Quarter
Dec 13
New
Dec 19
First Quarter
Dec 28
Full

Hourly Weather History & Observations

Time (CST) Temp. Windchill Dew Point Humidity Pressure Visibility Wind Dir Wind Speed Gust Speed Precip Events Conditions
12:15 AM 32.0 °F 21.2 °F 32.0 °F 100% 29.77 in 2.0 mi South 16.1 mph 25.3 mph N/A   Overcast
12:35 AM 32.0 °F 21.6 °F 32.0 °F 100% 29.75 in 2.0 mi South 15.0 mph 21.9 mph N/A   Overcast
12:55 AM 32.0 °F 21.6 °F 32.0 °F 100% 29.74 in 1.8 mi South 15.0 mph 21.9 mph N/A   Overcast
1:15 AM 32.0 °F 21.2 °F 32.0 °F 100% 29.74 in 1.8 mi South 16.1 mph - N/A   Overcast
1:35 AM 32.0 °F 21.6 °F 32.0 °F 100% 29.72 in 1.8 mi South 15.0 mph - N/A   Overcast
1:55 AM 32.0 °F 22.5 °F 32.0 °F 100% 29.72 in 1.8 mi South 12.7 mph - N/A   Mist
2:15 AM 32.0 °F 21.6 °F 32.0 °F 100% 29.71 in 2.0 mi South 15.0 mph - N/A   Overcast
3:15 AM 33.8 °F 25.8 °F 32.0 °F 93% 29.70 in 2.5 mi South 10.4 mph - N/A   Overcast
3:35 AM 33.8 °F 26.4 °F 32.0 °F 93% 29.70 in 2.5 mi South 9.2 mph - N/A   Overcast
3:55 AM 33.8 °F 27.0 °F 32.0 °F 93% 29.69 in 2.5 mi SSE 8.1 mph - N/A   Overcast
4:15 AM 33.8 °F 26.4 °F 32.0 °F 93% 29.68 in 2.5 mi South 9.2 mph - N/A   Overcast
4:35 AM 33.8 °F 26.4 °F 32.0 °F 93% 29.66 in 2.5 mi SSE 9.2 mph - N/A   Overcast
4:55 AM 33.8 °F 26.4 °F 32.0 °F 93% 29.67 in 2.5 mi South 9.2 mph - N/A   Overcast
5:15 AM 33.8 °F 25.8 °F 32.0 °F 93% 29.66 in 2.5 mi South 10.4 mph - N/A   Overcast
5:35 AM 33.8 °F 27.0 °F 32.0 °F 93% 29.66 in 2.5 mi South 8.1 mph - N/A   Overcast
5:55 AM 32.0 °F 25.6 °F 32.0 °F 100% 29.67 in 2.5 mi South 6.9 mph - N/A   Mostly Cloudy
6:15 AM 32.0 °F 26.4 °F 32.0 °F 100% 29.67 in 2.5 mi SSE 5.8 mph - N/A   Mostly Cloudy
6:35 AM 32.0 °F 25.6 °F 32.0 °F 100% 29.67 in 2.5 mi South 6.9 mph - N/A   Overcast
6:55 AM 32.0 °F 26.4 °F 32.0 °F 100% 29.68 in 2.5 mi South 5.8 mph - N/A   Overcast
7:15 AM 32.0 °F 26.4 °F 32.0 °F 100% 29.68 in 2.5 mi SSW 5.8 mph - N/A   Overcast
7:35 AM 32.0 °F 27.5 °F 32.0 °F 100% 29.69 in 2.5 mi SSW 4.6 mph - N/A   Mostly Cloudy
7:55 AM 32.0 °F 28.7 °F 32.0 °F 100% 29.68 in 1.8 mi South 3.5 mph - N/A   Mostly Cloudy
8:15 AM 32.0 °F 28.7 °F 32.0 °F 100% 29.68 in 1.0 mi SSW 3.5 mph - N/A   Mostly Cloudy
8:35 AM 28.4 °F - 28.4 °F 100% 29.69 in 0.8 mi Calm Calm - N/A   Overcast
8:55 AM 30.2 °F 25.4 °F 30.2 °F 100% 29.70 in 0.8 mi SW 4.6 mph - N/A   Mostly Cloudy
9:15 AM 30.2 °F 26.7 °F 30.2 °F 100% 29.70 in 1.0 mi West 3.5 mph - N/A   Clear
9:35 AM 28.4 °F 23.3 °F 28.4 °F 100% 29.71 in 0.8 mi WNW 4.6 mph - N/A   Mist
10:15 AM 32.0 °F 25.6 °F 30.2 °F 93% 29.72 in 2.0 mi NW 6.9 mph - N/A   Clear
10:35 AM 32.0 °F 24.8 °F 30.2 °F 93% 29.72 in 2.5 mi NNW 8.1 mph - N/A   Clear
10:55 AM 32.0 °F 24.2 °F 30.2 °F 93% 29.72 in 3.0 mi NNW 9.2 mph - N/A   Clear
11:15 AM 32.0 °F 23.0 °F 30.2 °F 93% 29.72 in 3.0 mi NNW 11.5 mph - N/A   Clear
11:35 AM 33.8 °F 24.3 °F 30.2 °F 87% 29.73 in 3.0 mi NNW 13.8 mph - N/A   Clear
11:55 AM 32.0 °F 21.6 °F 30.2 °F 93% 29.73 in 3.0 mi NNW 15.0 mph - N/A   Mostly Cloudy
12:15 PM 32.0 °F 21.6 °F 32.0 °F 100% 29.74 in 3.0 mi NNW 15.0 mph 20.7 mph N/A   Overcast
12:35 PM 32.0 °F 21.2 °F 32.0 °F 100% 29.74 in 2.0 mi North 16.1 mph 20.7 mph N/A   Overcast
1:15 PM 28.4 °F 16.2 °F 28.4 °F 100% 29.74 in 0.2 mi North 17.3 mph 23.0 mph N/A Fog Light Freezing Fog
1:35 PM 28.4 °F 18.0 °F 28.4 °F 100% 29.76 in 0.2 mi North 12.7 mph - N/A Fog Light Freezing Fog
1:55 PM 28.4 °F 18.0 °F 28.4 °F 100% 29.77 in 1.2 mi NNW 12.7 mph - N/A   Overcast
2:15 PM 28.4 °F 18.0 °F 28.4 °F 100% 29.78 in 1.8 mi NNW 12.7 mph - N/A   Overcast
2:35 PM 28.4 °F 19.1 °F 28.4 °F 100% 29.79 in 2.0 mi NNW 10.4 mph - N/A   Overcast
2:55 PM 26.6 °F 15.2 °F 26.6 °F 100% 29.79 in 2.5 mi NNW 13.8 mph - N/A   Overcast
3:15 PM 26.6 °F 15.2 °F 26.6 °F 100% 29.80 in 1.8 mi NNW 13.8 mph - N/A   Overcast
3:35 PM 26.6 °F 15.7 °F 26.6 °F 100% 29.81 in 1.2 mi NNW 12.7 mph - N/A   Overcast
3:55 PM 26.6 °F 14.7 °F 26.6 °F 100% 29.81 in 1.2 mi NNW 15.0 mph 19.6 mph N/A   Overcast
4:15 PM 24.8 °F 13.4 °F 24.8 °F 100% 29.83 in 1.2 mi NNW 12.7 mph - N/A   Overcast
4:35 PM 24.8 °F 12.9 °F 24.8 °F 100% 29.83 in 1.8 mi NNW 13.8 mph - N/A   Overcast
4:55 PM 24.8 °F 14.0 °F 24.8 °F 100% 29.83 in 1.8 mi North 11.5 mph 17.3 mph N/A   Overcast
5:15 PM 24.8 °F 14.0 °F 24.8 °F 100% 29.84 in 3.0 mi North 11.5 mph - N/A   Overcast
5:35 PM 23.0 °F 10.6 °F 23.0 °F 100% 29.84 in 5.0 mi NNW 13.8 mph - N/A   Overcast
5:55 PM 23.0 °F 11.1 °F 23.0 °F 100% 29.85 in 4.0 mi North 12.7 mph - N/A   Overcast
6:15 PM 23.0 °F 10.6 °F 23.0 °F 100% 29.86 in 4.0 mi North 13.8 mph - N/A   Overcast
6:35 PM 23.0 °F 10.1 °F 21.2 °F 93% 29.86 in 6.0 mi North 15.0 mph - N/A   Overcast
6:55 PM 23.0 °F 10.6 °F 21.2 °F 93% 29.86 in 6.0 mi North 13.8 mph - N/A   Overcast
7:15 PM 21.2 °F 8.9 °F 21.2 °F 100% 29.86 in 7.0 mi North 12.7 mph 19.6 mph N/A   Overcast
7:35 PM 21.2 °F 9.5 °F 21.2 °F 100% 29.86 in 6.0 mi North 11.5 mph - N/A   Overcast
7:55 PM 21.2 °F 10.1 °F 21.2 °F 100% 29.87 in 7.0 mi North 10.4 mph - N/A   Overcast
8:15 PM 21.2 °F 11.7 °F 19.4 °F 93% 29.87 in 10.0 mi North 8.1 mph - N/A   Overcast
8:35 PM 21.2 °F 10.9 °F 19.4 °F 93% 29.88 in 10.0 mi North 9.2 mph - N/A   Overcast
8:55 PM 21.2 °F 10.1 °F 19.4 °F 93% 29.88 in 10.0 mi North 10.4 mph - N/A   Overcast
9:15 PM 21.2 °F 10.1 °F 19.4 °F 93% 29.89 in 10.0 mi NNW 10.4 mph - N/A   Overcast
9:35 PM 21.2 °F 11.7 °F 19.4 °F 93% 29.89 in 10.0 mi NNW 8.1 mph - N/A   Overcast
9:55 PM 21.2 °F 12.6 °F 19.4 °F 93% 29.90 in 10.0 mi NW 6.9 mph - N/A   Overcast
10:15 PM 21.2 °F 11.7 °F 19.4 °F 93% 29.91 in 10.0 mi NNW 8.1 mph - N/A   Overcast
10:35 PM 21.2 °F 14.9 °F 19.4 °F 93% 29.90 in 10.0 mi NNW 4.6 mph - N/A   Overcast
10:55 PM 21.2 °F 13.6 °F 19.4 °F 93% 29.90 in 10.0 mi NNW 5.8 mph - N/A   Overcast
11:15 PM 19.4 °F 9.5 °F 19.4 °F 100% 29.89 in 10.0 mi North 8.1 mph - N/A   Overcast
11:35 PM 19.4 °F 9.5 °F 19.4 °F 100% 29.91 in 10.0 mi NNW 8.1 mph - N/A   Overcast
11:55 PM 19.4 °F 10.4 °F 19.4 °F 100% 29.91 in 10.0 mi NNW 6.9 mph - N/A   Overcast